User: anonymous   Login
Location: Ottawa
(45.4167°N, 75.7000°W)
Time: 10:43:09
(UTC-04:00)
Language:

Tiangong 2 - Orbit

View from above orbital plane
View from above orbital plane
View from above satellite
View from above satellite

Ground track
Ground track

The orbit data is extracted from the following two-line orbital elements,

1 41765U 16057A   17292.04885309  .00005909  00000-0  77859-4 0  9993
2 41765  42.7839 339.0634 0002860 357.3066  80.8350 15.59225072 62316
Epoch (UTC): 19 October 2017 01:10:20
Eccentricity: 0.0002860
inclination: 42.7839°
perigee height: 388 km
apogee height: 392 km
right ascension of ascending node: 339.0634°
argument of perigee: 357.3066°
revolutions per day: 15.59225072
mean anomaly at epoch: 80.8350°
orbit number at epoch: 6231

The dashed part of the orbit path shows where the satellite is in the earth's shadow,  

DLR